Location: Unspecified
(0.0000°N, 0.0000°E)
Time: 08:28:31
(UTC+00:00)

DMSP B5D2-4 - Visible Passes

Search period start: 09 June 2023 00:00
Search period end: 19 June 2023 00:00
Orbit: 794 x 805 km, 98.3° (Epoch: 08 June)

Date Brightness Start Highest point End Pass type
(mag) Time Alt. Az. Time Alt. Az. Time Alt. Az.
09 Jun 5.2 18:31:50 10° NNE 18:36:56 55° ESE 18:42:04 10° S visible
10 Jun 7.7 19:46:01 10° NNW 19:49:41 20° WNW 19:53:24 10° WSW visible
11 Jun 6.4 19:18:09 10° N 19:23:01 40° WNW 19:27:56 10° SSW visible
12 Jun 5.1 18:51:06 10° N 18:56:20 86° WNW 19:01:36 10° SSW visible
13 Jun 5.4 18:24:40 10° NNE 18:29:39 45° ESE 18:34:39 10° S visible
13 Jun 8.3 20:07:53 10° WNW 20:09:03 11° WNW 20:10:15 10° W visible
14 Jun 7.4 19:38:17 10° NNW 19:42:24 24° WNW 19:46:32 10° SW visible
15 Jun 6.1 19:10:41 10° N 19:15:43 49° WNW 19:20:48 10° SSW visible
16 Jun 5.0 18:43:47 10° NNE 18:49:01 79° ESE 18:54:17 10° S visible
17 Jun 8.1 19:59:18 10° NW 20:01:46 13° WNW 20:04:14 10° WSW visible
18 Jun 7.1 19:30:39 10° NNW 19:35:05 28° WNW 19:39:34 10° SW visible
